Location: Unspecified
(35.7250°N, 0.0000°E)
Time: 04:52:16
(UTC+00:00)

Courier 1B Rocket - Pass Details

Date: 13 August 2020
Orbit: 920 x 1202 km, 28.2° (Epoch: 21 September)

Event Time Altitude Azimuth Distance (km) Brightness Sun altitude
Exits shadow 01:52:58 17° 112° (ESE) 2,205 6.9 -33.6°
Drops below altitude 10° 01:54:33 10° 104° (ESE) 2,684 7.5 -33.4°
Sets 01:57:30 0° 95° (E) 3,670 8.3 -33.1°
